Simultaneous Nadir Overpasses (SNOs) Predictions

Prediction of SNOs between AQUA and METOP-B Satellite Orbit:

Table of predicted SNOs for the next 14.0 days since TLE Epoch: 3/13/2021
Index Date (AQUA) Time (AQUA) Lat,Lon (AQUA) SZA (AQUA ) Date (METOP-B) Time (METOP-B) Lat,Lon (METOP-B) SZA (METOP-B ) Distance(km) Time Diff (sec)
1 03/13/2021 16:44:50 -73.43, 103.86 103.88 03/13/2021 16:43:40 -73.39, 102.29 103.85 50.33 70
2 03/13/2021 17:34:25 73.81, -89.32 76.52 03/13/2021 17:34:11 73.82, -89.39 76.53 2.30 14
3 03/13/2021 18:23:52 -73.89, 78.14 103.41 03/13/2021 18:24:51 -73.91, 78.17 103.40 2.10 59
4 03/16/2021 12:19:09 -73.63, 169.88 104.79 03/16/2021 12:17:57 -73.59, 169.16 104.78 23.05 72
5 03/16/2021 13:08:41 73.85, -22.97 75.44 03/16/2021 13:08:32 73.82, -22.97 75.41 3.30 9
6 03/16/2021 13:58:08 -73.93, 144.49 104.49 03/16/2021 13:59:12 -73.92, 144.59 104.52 3.63 64
7 03/19/2021 07:53:27 -73.78,-124.01 105.75 03/19/2021 07:52:14 -73.79,-123.96 105.72 2.11 73
8 03/19/2021 08:42:56 73.85, 43.47 74.32 03/19/2021 08:42:53 73.82, 43.45 74.30 2.71 3
9 03/19/2021 09:32:23 -73.93,-149.06 105.61 03/19/2021 09:33:33 -73.92,-149.00 105.64 2.42 70
10 03/22/2021 03:27:41 -73.78, -57.58 106.87 03/22/2021 03:26:34 -73.79, -57.55 106.84 1.36 67
11 03/22/2021 04:17:10 73.85, 109.90 73.20 03/22/2021 04:17:13 73.82, 109.86 73.18 3.29 3
12 03/22/2021 05:06:39 -74.04, -82.87 106.62 03/22/2021 05:07:51 -74.02, -82.35 106.67 16.00 72
13 03/24/2021 23:01:56 -73.79, 8.84 107.97 03/24/2021 23:00:55 -73.79, 8.85 107.96 0.61 61
14 03/24/2021 23:51:25 73.86, 176.31 72.10 03/24/2021 23:51:33 73.87, 176.39 72.10 2.51 8



Historial Predications of SNOs between AQUA and METOP-B
